Flag for U.S.A. Weather past 2 weeks in Sunrise Manor, Nevada, U.S.A.

Now
87 °F

Clear.


Feels Like: 85 °F
Forecast: 76 / 94 °F
Wind: 1 mph from North

Location: Nellis Air Force Base

Current Time: Sep 16, 2014 at 10:53:15 PM

Latest Report: Sep 16, 2014 at 9:58 PM


Visibility: 10 mi

Pressure: 29.82 "Hg

Humidity: 37%

Dew point: 57 °F

Location of Sunrise ManorLocation

Historic Weather in Sunrise Manor — Graph

°F

Sunrise Manor temperature yesterday

Maximum temperature yesterday: 103 °F (at 3:58 PM)
Minimum temperature yesterday: 77 °F (at 3:58 AM)
Average temperature yesterday: 89 °F

Past Weeks' High & Low Weather Summary

 TemperatureHumidityPressure
High104 °F (Sep 2, 4:58 PM)100% (Sep 9, 2:58 AM)29.95 "Hg (Sep 9, 2:58 AM)
Low67 °F (Sep 10, 5:58 AM)5% (Sep 3, 5:58 PM)29.52 "Hg (Sep 3, 4:58 PM)
Average87 °F31%29.77 "Hg
* Reported Sep 1 9:58 PM — Sep 16 9:58 PM, Sunrise Manor, Weather by CustomWeather, © 2014

Note: Actual official high and low records may vary slightly from our data, if they occured in-between our weather recording intervals... More about our weather records

Advertising

Sunrise Manor weather history for previous 24 hours

 ConditionsComfort  
Time TempWeatherWind HumidityBarometerVisibility
9:58 PM
Sep 16
87 °FClear.1 mph37%29.82 "Hg10 mi
8:58 PM88 °FClear.13 mph40%29.79 "Hg10 mi
7:58 PM92 °FClear.31 mph36%29.72 "Hg10 mi
6:58 PM97 °FSunny.8 mph28%29.70 "Hg10 mi
5:58 PM99 °FSunny.8 mph24%29.69 "Hg10 mi
4:58 PM99 °FSunny.6 mph25%29.69 "Hg10 mi
3:58 PM99 °FSunny.8 mph26%29.70 "Hg10 mi
2:58 PM99 °FSunny.7 mph26%29.73 "Hg10 mi
1:58 PM98 °FSunny.8 mph30%29.76 "Hg10 mi
12:58 PM97 °FSunny.8 mph31%29.79 "Hg10 mi
11:58 AM96 °FSunny.8 mph30%29.83 "Hg10 mi
10:58 AM93 °FSunny.6 mph28%29.84 "Hg10 mi
9:58 AM91 °FSunny.6 mph28%29.85 "Hg10 mi
8:58 AM87 °FSunny.No wind25%29.85 "Hg10 mi
7:58 AM83 °FSunny.3 mph28%29.85 "Hg10 mi
6:58 AM80 °FClear.2 mph29%29.83 "Hg10 mi
5:58 AM81 °FClear.8 mph28%29.81 "Hg10 mi
4:58 AM80 °FClear.6 mph28%29.80 "Hg10 mi
3:58 AM79 °FClear.9 mph29%29.79 "Hg10 mi
2:58 AM79 °FClear.6 mph28%29.79 "Hg10 mi
1:58 AM80 °FClear.1 mph28%29.80 "Hg10 mi
12:58 AM82 °FClear.2 mph26%29.79 "Hg10 mi
11:58 PM
Sep 15
81 °FClear.5 mph26%29.79 "Hg10 mi
10:58 PM84 °FClear.No wind23%29.79 "Hg10 mi
Weather by CustomWeather, © 2014

See weather overviewHow to use our weather pages